Temperature
20 20 20 19 20 21 23 24 24 25 25 26 26 25 24 23 22 20 19 19 19 18 18 18 18 18 18 18 18 18 18 18 18 18 18 18 18 18 18 18 18 18 18 18 18 18 18 18 18
20 20 20 20 21 22 23 24 24 25 26 26 26 25 24 23 21 20 19 19 19 18 18 18 18 18 18 18 18 18 18 18 18 18 18 18 18 18 18 18 18 18 18 18 18 18 18 18 18
20 20 21 21 22 23 23 24 25 26 26 26 26 25 24 22 21 20 19 19 18 18 18 18 18 18 18 18 18 17 17 17 17 17 17 17 17 17 18 18 18 18 18 18 18 18 18 18 18
20 21 22 22 23 24 24 25 26 26 26 26 26 24 22 22 21 20 20 19 18 18 18 18 18 18 18 18 17 17 17 17 17 17 17 17 17 17 17 17 17 17 17 17 17 18 18 18 18
21 21 22 23 24 25 26 26 26 26 26 26 25 23 21 21 20 20 20 19 19 18 18 18 18 18 18 18 17 17 17 17 17 17 17 17 17 17 17 17 17 17 17 17 17 17 18 18 18
21 22 22 23 24 25 26 26 26 26 26 26 25 23 21 20 20 20 20 19 19 18 18 18 18 18 18 17 17 17 17 17 17 17 17 17 17 17 17 17 17 17 17 17 17 17 17 17 17
21 22 22 23 24 24 26 26 26 26 26 26 25 23 21 20 20 20 19 19 19 19 18 18 18 18 18 17 17 17 17 17 17 17 17 17 17 17 17 16 16 17 17 17 17 17 17 17 17
22 22 23 24 23 24 26 26 26 25 26 25 25 23 21 20 20 20 19 19 19 19 19 18 18 18 18 18 17 17 17 17 17 17 17 17 17 16 16 16 16 16 16 16 17 17 17 17 17
22 22 22 23 24 24 26 26 26 25 25 25 24 23 22 21 20 20 20 19 19 19 19 19 18 18 18 18 17 17 17 17 17 16 16 17 16 16 16 16 16 16 16 16 16 16 17 17 17
23 21 23 25 25 25 26 26 26 26 25 25 24 22 21 21 21 20 20 20 20 20 19 19 19 19 18 18 18 17 17 17 17 16 16 16 16 16 16 16 16 16 16 16 16 16 16 17 17
24 22 23 25 26 26 26 26 26 25 25 25 24 23 22 21 21 21 21 21 20 20 20 20 19 19 19 18 18 17 17 17 17 17 16 16 16 16 16 16 16 16 16 16 16 16 16 17 17
25 24 24 25 25 25 25 26 25 25 25 24 24 23 22 22 22 22 22 21 21 20 20 20 20 19 19 18 18 18 17 17 17 17 17 16 16 16 16 16 16 16 16 16 16 16 16 16 17
25 24 25 25 25 25 25 25 25 25 25 25 24 23 23 23 23 22 22 21 21 20 20 20 20 19 19 18 18 18 18 17 17 17 16 16 16 16 16 16 16 16 16 16 16 16 16 16 16
25 25 25 25 25 25 26 25 25 25 25 25 24 24 23 23 23 22 22 22 21 21 20 20 19 19 19 18 18 18 17 17 17 17 16 16 16 16 16 16 16 16 16 16 16 16 16 16 16
25 25 25 25 26 26 25 24 25 25 25 25 24 24 23 23 23 23 22 22 22 21 20 20 19 19 18 18 18 18 17 17 17 16 16 16 16 16 16 15 15 15 15 15 15 15 16 16 16
25 24 23 25 26 25 24 23 25 25 25 25 24 24 23 23 23 23 22 22 22 21 20 20 19 19 18 18 18 17 17 17 17 16 16 16 15 15 15 15 15 15 15 15 15 15 15 15 16
24 23 23 24 26 26 25 23 25 25 25 25 24 24 23 23 23 23 22 22 22 21 20 20 19 19 18 18 17 17 17 17 16 16 16 15 15 15 15 15 15 15 14 14 14 15 15 15 15
23 23 23 24 25 26 24 23 24 25 25 24 24 24 24 23 23 23 22 22 22 21 21 20 19 19 18 18 17 17 17 16 16 16 15 15 15 15 15 14 14 14 14 14 14 14 15 15 15
25 25 24 24 25 25 24 24 24 25 24 24 24 24 23 23 23 22 22 22 21 21 21 20 19 19 18 18 17 17 17 16 16 16 15 15 15 14 14 14 14 14 14 14 14 14 14 14 15
25 24 24 25 26 25 25 24 24 25 24 24 24 24 23 23 23 22 22 21 21 21 20 20 19 19 18 18 17 17 17 16 16 16 15 15 15 14 14 14 14 14 14 14 14 14 14 14 14
25 24 25 25 26 26 25 23 24 25 24 24 24 23 23 23 23 22 22 21 21 21 20 20 19 19 18 18 17 17 16 16 16 16 16 15 15 14 14 14 14 14 14 14 14 14 14 14 14
24 26 26 26 25 24 25 22 23 24 24 24 23 23 23 22 22 22 21 21 20 20 20 20 19 19 18 18 17 17 17 16 16 16 16 15 15 15 14 14 14 14 14 14 14 14 14 14 14
26 26 26 26 25 25 25 23 22 23 22 23 23 23 22 22 22 21 21 21 20 20 19 19 19 19 18 18 17 17 16 16 16 16 16 15 15 15 15 14 14 14 14 14 14 14 14 14 14
26 26 26 26 25 23 25 24 22 23 22 23 23 23 22 21 21 21 20 20 20 19 19 19 19 18 18 18 17 17 16 16 16 16 16 16 15 15 15 15 14 14 14 14 14 14 14 14 14
26 25 24 23 23 23 25 24 22 23 23 23 23 22 21 21 20 20 20 19 19 19 19 18 18 18 18 17 17 17 16 16 16 16 16 16 15 15 15 15 15 14 14 14 14 14 14 14 14
25 24 23 23 23 24 25 23 22 23 23 23 22 21 21 20 20 19 19 19 18 18 18 18 18 17 17 17 17 17 17 16 16 16 16 16 16 15 15 15 15 14 14 14 14 14 14 14 14
25 24 25 24 24 24 24 22 22 23 23 22 22 21 21 20 19 19 18 18 18 18 17 17 17 17 17 17 17 17 16 16 16 16 16 16 15 15 15 15 15 15 14 14 14 14 14 14 14
27 26 26 25 24 24 23 23 22 22 22 22 21 21 20 19 19 18 18 18 17 17 17 17 17 17 17 17 17 16 16 16 16 16 16 15 15 15 15 15 15 15 15 14 14 14 14 14 14
26 26 25 25 25 24 23 22 24 22 22 21 21 20 20 19 18 18 17 17 17 17 17 17 17 17 17 16 16 16 16 16 15 15 15 15 15 15 15 15 15 15 15 14 14 14 14 14 14
27 26 26 24 25 25 24 21 24 22 22 21 21 20 19 19 18 17 17 17 16 16 16 16 16 16 16 16 16 16 15 15 15 15 15 15 15 15 15 15 15 15 15 15 14 14 14 14 14
Wind_Speed
8 9 7 3 3 2 3 4 6 5 6 6 7 8 12 13 8 8 3 6 13 14 14 13 12 12 12 11 11 11 11 10 10 9 8 7 7 7 6 6 6 6 6 6 6 6 6 6 6
8 7 4 3 2 1 4 6 8 7 5 4 7 11 12 12 12 9 5 8 13 14 13 14 13 13 12 11 11 10 10 9 9 8 8 7 6 6 5 5 5 5 5 5 5 5 5 5 5
10 7 3 3 2 3 4 6 7 7 5 5 8 11 9 7 10 7 8 11 14 14 15 14 13 13 12 12 11 10 10 9 8 7 7 6 5 5 4 4 5 5 5 4 5 5 4 4 4
5 3 3 2 2 5 6 6 5 7 6 7 8 9 10 10 8 10 10 13 14 14 15 14 13 12 12 11 11 10 9 8 7 7 6 5 5 4 4 4 4 4 4 4 4 4 4 4 4
4 3 3 1 3 6 6 6 5 6 7 9 13 13 11 12 13 12 10 11 13 13 14 14 13 12 12 11 10 9 8 7 7 6 5 4 4 4 4 3 4 4 4 4 4 4 4 4 4
2 3 3 1 4 6 5 5 6 6 8 8 11 12 9 10 11 10 10 10 11 12 13 14 13 13 12 11 10 8 7 6 5 4 3 2 1 2 2 2 3 3 4 4 4 4 4 4 5
3 3 3 1 4 5 5 6 6 6 8 8 8 10 9 11 9 9 10 9 9 9 10 12 13 13 12 11 10 8 6 5 3 2 1 1 3 3 3 2 1 2 3 4 5 5 5 5 5
3 4 3 2 5 4 3 6 7 7 6 7 7 8 9 12 11 9 8 8 7 8 8 7 9 12 12 11 10 8 6 4 3 3 4 5 7 8 7 4 2 1 3 4 5 6 6 7 7
3 3 2 2 4 3 4 5 6 5 6 9 12 13 14 15 12 10 8 7 6 7 6 7 6 7 7 9 10 9 8 6 6 6 7 7 7 5 5 4 5 4 4 5 6 8 8 9 10
3 1 1 2 5 4 4 5 4 5 7 9 12 14 15 12 11 9 8 8 7 6 5 5 6 5 5 5 7 5 5 4 4 1 2 3 4 2 0 4 5 6 7 7 9 11 10 10 9
2 1 1 4 5 5 5 4 5 5 5 7 10 13 12 10 9 8 8 8 7 6 5 5 5 5 5 3 3 2 2 1 1 3 2 3 5 4 1 1 3 5 6 5 5 7 7 6 5
2 2 1 3 4 4 4 4 5 5 5 8 10 12 11 10 8 7 8 8 7 7 5 5 3 4 4 4 1 2 1 1 2 4 4 3 2 2 2 1 1 2 2 1 1 3 4 5 5
3 2 2 3 2 2 3 3 3 4 5 8 11 11 11 9 8 7 8 8 9 7 6 5 3 4 5 4 1 1 2 2 3 3 5 4 1 3 3 2 1 3 3 1 2 3 3 3 4
3 3 3 3 4 2 2 3 3 4 5 7 9 9 9 8 8 8 7 7 8 7 7 6 4 4 4 3 1 2 2 2 2 3 4 4 2 2 2 3 2 2 3 3 3 3 3 3 3
4 5 5 3 3 3 2 1 3 4 5 6 8 8 9 8 7 7 7 6 7 7 8 7 4 4 5 5 4 2 2 3 2 2 4 6 5 4 2 4 4 3 4 4 3 4 4 4 4
7 6 4 4 4 4 4 2 3 4 5 6 7 8 7 8 7 7 7 5 6 7 8 7 4 4 5 4 3 2 3 3 2 3 5 8 8 6 3 3 4 4 4 3 3 2 3 4 4
7 6 6 5 4 5 5 3 3 3 4 5 5 8 7 7 7 8 7 6 6 7 8 7 5 4 4 3 1 1 2 1 2 3 5 6 8 8 4 3 3 4 3 4 5 3 3 4 5
7 7 7 5 4 6 6 6 3 3 4 5 4 5 6 6 6 7 6 6 5 5 7 7 6 4 4 2 1 2 2 2 2 3 3 3 5 7 5 3 4 3 3 4 4 4 4 4 4
4 6 7 7 6 5 7 7 4 5 5 4 4 4 5 7 8 8 6 5 5 4 5 6 5 5 4 2 1 2 1 2 1 1 2 2 3 4 4 3 4 3 3 3 5 4 5 4 4
3 5 7 7 7 7 8 8 7 7 6 5 5 5 6 6 9 8 6 5 3 4 4 4 5 5 5 3 1 1 0 1 0 1 0 1 3 3 4 4 4 3 2 3 4 4 3 4 4
5 5 7 8 7 7 8 7 8 8 8 7 7 7 6 5 7 8 6 6 4 4 3 3 3 5 5 4 1 1 1 2 1 1 1 1 2 1 2 3 4 4 3 2 3 3 3 3 4
5 5 6 8 6 5 7 5 4 7 8 7 7 6 6 6 6 6 5 5 5 3 3 2 3 3 4 4 2 0 1 1 2 1 0 2 2 1 1 3 4 4 3 3 3 2 2 2 3
3 4 4 6 6 5 6 5 5 5 6 6 6 6 6 6 6 6 6 5 4 4 3 2 3 3 3 2 2 1 2 2 2 2 2 2 2 2 2 2 3 4 3 3 3 2 3 2 2
3 5 6 5 4 3 5 6 4 4 5 6 7 7 7 7 7 7 6 5 5 5 4 2 3 3 3 1 1 3 3 3 3 3 3 2 2 2 2 2 3 3 3 3 3 2 3 3 3
6 4 3 4 3 3 4 6 5 7 7 8 8 8 8 7 7 7 6 5 5 4 3 2 2 1 1 1 3 3 3 3 4 3 3 3 3 2 1 1 2 3 3 3 3 3 4 3 3
5 3 2 2 3 4 5 6 7 9 9 9 9 8 8 8 7 7 6 5 4 3 2 1 1 1 1 2 4 3 2 2 2 2 3 3 2 2 2 2 3 4 3 4 3 3 4 3 3
3 4 6 3 3 3 6 8 9 9 9 8 9 8 7 7 7 7 6 5 4 3 2 2 2 1 2 3 3 3 3 3 3 3 3 3 3 3 2 3 4 4 4 4 3 2 4 3 3
4 4 3 3 1 2 8 10 8 10 8 8 8 8 7 7 7 6 5 5 4 3 3 3 2 2 2 3 3 3 2 3 3 4 4 4 5 4 4 5 4 4 3 3 2 2 4 4 4
4 3 2 3 3 1 3 4 7 11 9 8 8 7 7 6 6 6 5 5 4 4 3 3 3 3 3 4 4 4 3 2 3 3 4 4 5 6 5 5 5 4 4 3 3 3 4 4 4
3 3 3 3 3 2 1 5 8 10 9 9 9 7 6 6 6 6 5 5 5 5 4 4 4 4 4 4 5 5 4 4 4 4 4 5 6 6 6 5 5 5 4 3 3 4 4 4 4
Wind_Direction
257 249 242 255 261 241 63 74 75 64 59 48 50 65 66 54 55 85 129 107 109 109 109 100 94 93 91 89 90 86 83 81 78 75 73 70 66 63 57 51 42 36 30 31 28 27 30 24 16
268 260 257 244 273 33 68 78 76 66 68 66 64 66 71 65 77 97 112 101 104 105 105 99 95 92 90 88 89 88 85 81 77 73 70 65 62 57 47 41 34 27 23 24 20 18 21 17 9
263 260 264 254 317 48 73 72 79 79 63 63 74 65 55 69 78 101 122 115 104 103 100 100 97 93 90 88 86 87 86 81 77 73 69 64 58 50 41 35 30 24 19 19 12 6 3 358 354
253 264 253 254 49 65 87 90 84 83 63 58 76 75 64 62 90 113 122 112 106 106 106 106 103 99 94 90 87 86 84 80 76 70 64 59 55 48 40 30 21 12 6 4 4 358 352 346 341
256 256 257 227 85 77 70 74 67 72 65 63 78 86 82 81 99 110 111 108 110 113 116 118 113 108 102 96 90 86 83 80 75 69 61 53 47 38 26 16 8 3 354 348 351 344 339 335 329
271 257 256 129 92 89 78 68 64 72 79 80 91 97 96 104 103 107 105 103 106 114 121 125 125 121 115 107 97 89 85 82 78 74 66 52 36 19 1 351 352 343 340 335 330 326 319 318 317
266 286 268 130 95 75 68 62 68 61 69 64 83 102 113 110 105 105 106 102 106 116 125 135 139 133 124 115 109 104 101 101 102 109 144 245 257 250 244 250 339 339 328 319 311 308 300 290 288
280 291 304 66 94 82 73 74 74 67 67 64 69 94 122 125 123 113 112 114 117 119 119 124 133 135 138 134 131 133 139 151 165 195 229 246 252 243 233 222 184 281 295 297 294 288 284 276 269
274 288 343 52 99 102 98 88 94 94 83 79 76 90 119 128 129 130 130 127 121 116 123 125 128 124 131 141 143 163 172 189 205 212 232 255 256 233 220 175 173 222 255 268 271 269 268 268 262
220 275 341 33 77 88 81 80 87 104 93 93 97 104 121 136 140 144 146 138 131 132 125 121 120 119 112 99 135 159 160 176 214 167 195 280 313 332 283 162 207 231 248 257 259 261 267 263 254
207 179 36 34 52 76 79 73 62 66 87 101 118 125 130 139 143 147 137 126 129 123 108 108 113 116 114 107 108 88 93 134 30 19 14 1 351 345 337 172 204 237 245 244 258 254 255 256 248
190 102 116 77 61 68 73 69 72 70 78 101 114 127 138 152 146 147 129 127 123 107 108 102 98 110 106 91 83 172 114 63 56 14 358 41 16 329 350 321 5 287 272 242 259 256 275 285 280
186 161 147 104 103 99 107 99 90 82 88 110 126 137 146 150 141 128 129 135 124 130 127 108 93 83 90 101 260 85 90 44 65 43 349 31 23 330 351 327 352 314 327 322 295 284 294 309 318
162 174 168 161 159 167 137 117 110 102 115 128 134 140 145 146 141 138 139 134 129 134 122 100 81 87 83 98 52 70 67 114 55 50 350 5 14 340 347 330 330 333 338 337 330 313 314 306 301
184 196 175 184 180 143 112 64 118 133 137 136 139 138 139 144 145 143 133 132 127 124 114 102 92 78 67 48 21 42 50 44 41 52 6 6 6 357 3 354 345 343 343 336 333 338 335 316 309
202 205 181 180 184 159 155 122 113 142 141 140 138 133 141 150 154 137 131 125 121 116 113 116 108 92 87 71 30 8 39 37 8 38 29 8 358 4 6 355 338 342 341 332 328 321 322 319 317
200 193 181 161 170 160 159 129 111 128 127 126 135 143 153 156 155 139 136 131 123 124 128 124 109 101 98 103 140 78 46 40 356 45 47 12 351 356 7 340 334 346 342 340 329 347 340 322 319
194 181 167 154 150 155 129 106 103 101 95 110 124 136 145 146 139 131 131 125 127 127 124 120 128 118 109 97 40 68 51 359 23 59 64 19 340 355 358 329 341 355 346 338 329 329 320 303 300
200 164 149 140 155 147 124 116 116 95 86 87 105 117 125 136 124 115 120 123 132 129 125 130 138 137 118 88 46 32 36 335 7 32 69 3 342 353 337 328 334 347 337 327 323 325 325 314 306
180 156 151 146 154 138 124 113 106 93 91 73 76 85 99 113 122 120 124 121 131 122 114 130 132 122 117 124 164 187 137 287 276 340 86 12 351 347 338 341 332 324 316 320 316 321 316 311 318
181 172 169 154 145 142 124 108 110 103 91 78 73 70 75 79 105 119 120 120 110 100 112 113 114 132 136 147 135 356 339 291 302 257 175 224 250 280 317 319 313 311 314 300 299 309 307 300 310
173 169 178 163 169 170 157 126 120 114 99 87 79 76 75 73 77 89 95 104 117 114 104 109 117 116 123 136 140 296 288 289 288 311 236 265 234 213 244 287 295 299 304 308 304 323 317 309 300
149 158 189 203 196 189 166 132 116 110 105 94 89 83 78 80 80 80 80 77 79 80 74 53 85 87 93 97 127 229 285 302 317 319 294 276 261 227 220 247 281 288 292 300 301 321 309 293 279
178 197 206 225 229 209 178 134 115 120 114 102 91 85 79 71 73 74 76 74 70 66 58 37 49 69 76 52 252 229 254 274 284 285 286 285 271 247 233 237 272 286 300 313 309 290 282 272 275
221 221 193 196 192 190 137 104 98 94 95 94 88 80 77 72 70 68 66 69 73 75 67 42 43 62 110 240 261 254 243 262 270 274 279 272 270 266 254 280 282 290 298 296 290 287 279 265 256
218 240 255 232 186 162 147 115 112 105 96 94 91 86 82 79 74 70 67 66 69 69 68 39 33 24 325 272 279 280 264 245 255 264 279 277 269 265 257 260 260 264 273 282 281 279 279 276 265
203 207 243 259 236 173 129 115 118 115 109 103 97 90 81 77 74 71 64 65 70 64 51 37 36 13 336 308 297 305 323 333 324 306 290 285 278 271 271 267 262 259 256 260 271 271 283 292 273
294 289 254 256 250 169 149 154 155 146 130 114 100 85 76 70 68 67 60 55 55 50 39 36 21 360 348 333 330 337 336 333 324 317 309 309 307 298 275 265 268 269 259 253 253 266 277 278 267
214 242 292 298 277 280 151 107 127 141 132 120 107 97 84 77 73 71 60 50 47 46 40 31 13 357 2 351 339 338 336 328 320 308 304 298 286 280 273 262 262 263 260 257 245 246 261 272 282
269 282 274 285 291 296 113 111 116 122 118 114 109 100 88 79 76 69 61 50 42 34 26 24 15 12 7 352 343 345 346 329 309 307 306 303 303 301 295 282 270 267 262 255 247 251 257 255 266
Height
1492 1492 1493 1495 1495 1496 1494 1489 1484 1485 1484 1485 1484 1485 1489 1493 1498 1510 1510 1509 1509 1509 1509 1510 1511 1512 1513 1514 1515 1516 1517 1518 1519 1519 1520 1521 1521 1522 1522 1523 1523 1523 1524 1524 1524 1524 1524 1524 1524
1492 1493 1495 1495 1496 1500 1497 1487 1486 1485 1485 1485 1486 1488 1491 1496 1501 1506 1508 1510 1510 1510 1511 1512 1512 1513 1514 1515 1516 1517 1517 1518 1519 1520 1520 1521 1521 1522 1522 1523 1523 1523 1524 1524 1524 1524 1524 1524 1524
1492 1494 1495 1493 1494 1497 1497 1487 1485 1485 1486 1486 1488 1491 1495 1501 1504 1507 1510 1511 1512 1512 1512 1513 1514 1514 1515 1516 1517 1517 1518 1519 1519 1520 1521 1521 1521 1522 1522 1522 1523 1523 1523 1523 1523 1524 1524 1524 1524
1494 1495 1494 1493 1494 1488 1487 1485 1484 1485 1487 1487 1489 1494 1501 1504 1506 1509 1511 1513 1513 1513 1513 1514 1515 1516 1516 1517 1518 1518 1519 1519 1520 1520 1520 1521 1521 1521 1521 1522 1522 1522 1522 1522 1523 1523 1523 1523 1523
1495 1495 1494 1494 1491 1486 1484 1485 1485 1487 1488 1490 1492 1498 1505 1507 1508 1510 1512 1514 1514 1514 1515 1516 1516 1517 1517 1518 1518 1519 1519 1520 1520 1520 1520 1520 1521 1521 1521 1521 1521 1521 1521 1521 1522 1522 1522 1522 1522
1496 1492 1496 1497 1492 1485 1485 1486 1487 1488 1490 1491 1494 1499 1507 1509 1510 1512 1514 1515 1516 1516 1516 1517 1518 1518 1519 1519 1519 1520 1520 1520 1520 1520 1520 1520 1520 1521 1521 1520 1520 1520 1520 1520 1520 1520 1521 1521 1521
1496 1494 1495 1493 1492 1490 1487 1488 1489 1490 1491 1493 1495 1500 1507 1510 1512 1513 1515 1516 1517 1518 1518 1518 1519 1519 1519 1520 1520 1520 1520 1520 1520 1520 1520 1520 1520 1520 1520 1520 1520 1520 1519 1519 1519 1519 1519 1519 1520
1494 1494 1493 1491 1494 1493 1489 1489 1491 1492 1494 1496 1497 1501 1507 1511 1513 1514 1516 1517 1519 1520 1520 1521 1521 1521 1521 1521 1521 1521 1521 1521 1521 1520 1520 1520 1520 1520 1520 1519 1519 1519 1518 1518 1518 1518 1518 1518 1519
1494 1497 1498 1493 1493 1492 1489 1490 1492 1494 1495 1497 1499 1503 1507 1510 1513 1515 1516 1518 1520 1521 1522 1522 1523 1523 1523 1522 1522 1522 1522 1521 1521 1521 1521 1520 1520 1520 1520 1520 1519 1519 1518 1517 1517 1517 1517 1517 1517
1493 1498 1495 1488 1488 1489 1490 1491 1493 1494 1496 1499 1502 1506 1509 1511 1513 1515 1516 1518 1520 1522 1523 1523 1524 1524 1524 1524 1523 1523 1523 1523 1522 1522 1522 1521 1521 1521 1521 1520 1519 1518 1517 1517 1516 1516 1516 1516 1516
1490 1494 1491 1489 1489 1490 1491 1493 1494 1495 1498 1500 1503 1507 1510 1512 1514 1515 1517 1519 1521 1522 1524 1525 1525 1524 1525 1524 1525 1524 1524 1524 1523 1523 1522 1521 1521 1521 1520 1519 1519 1518 1517 1517 1516 1516 1515 1515 1515
1489 1489 1490 1491 1491 1492 1493 1494 1496 1497 1499 1501 1504 1507 1509 1511 1514 1515 1517 1519 1521 1523 1525 1525 1526 1525 1525 1525 1525 1525 1525 1524 1524 1523 1522 1521 1521 1520 1520 1519 1519 1518 1517 1517 1516 1515 1515 1515 1515
1489 1490 1491 1492 1492 1493 1494 1495 1497 1498 1500 1502 1504 1507 1509 1511 1514 1516 1518 1520 1521 1523 1525 1526 1526 1526 1526 1525 1525 1526 1525 1525 1524 1523 1522 1522 1521 1520 1519 1519 1518 1518 1517 1516 1516 1515 1515 1514 1514
1490 1491 1491 1492 1492 1494 1494 1496 1497 1499 1500 1502 1505 1507 1509 1512 1514 1516 1518 1520 1521 1523 1525 1526 1526 1526 1526 1526 1526 1525 1525 1525 1524 1523 1522 1522 1521 1520 1519 1518 1518 1517 1516 1516 1515 1514 1514 1513 1513
1490 1491 1491 1491 1491 1493 1496 1499 1498 1498 1500 1502 1504 1507 1509 1512 1514 1515 1518 1520 1521 1523 1524 1525 1526 1526 1526 1526 1526 1526 1525 1525 1524 1523 1522 1521 1521 1520 1518 1517 1517 1516 1515 1514 1514 1513 1512 1512 1512
1489 1492 1497 1492 1490 1493 1499 1506 1498 1498 1499 1501 1504 1506 1509 1511 1513 1516 1518 1520 1522 1523 1524 1525 1526 1526 1526 1526 1525 1525 1525 1524 1524 1523 1522 1521 1520 1519 1518 1517 1516 1515 1514 1513 1513 1512 1511 1511 1511
1491 1499 1499 1494 1490 1491 1496 1503 1499 1498 1499 1501 1503 1505 1508 1511 1513 1516 1518 1520 1522 1523 1524 1525 1526 1526 1526 1526 1526 1525 1525 1524 1524 1523 1521 1520 1519 1518 1517 1516 1515 1514 1513 1512 1512 1511 1510 1509 1509
1496 1496 1496 1497 1492 1491 1496 1501 1499 1499 1499 1501 1504 1505 1507 1510 1513 1515 1518 1520 1522 1523 1524 1524 1525 1526 1526 1526 1526 1525 1525 1524 1524 1522 1521 1519 1518 1517 1516 1515 1514 1513 1512 1511 1510 1510 1509 1508 1508
1485 1488 1494 1493 1490 1492 1497 1500 1500 1500 1501 1502 1504 1505 1507 1510 1512 1515 1518 1520 1522 1523 1524 1524 1525 1525 1525 1525 1525 1525 1524 1524 1523 1522 1520 1519 1518 1517 1516 1514 1513 1512 1511 1510 1509 1508 1508 1507 1507
1484 1491 1493 1491 1487 1491 1496 1500 1500 1501 1502 1504 1505 1506 1508 1510 1512 1515 1518 1519 1521 1523 1523 1524 1525 1525 1525 1524 1524 1524 1524 1523 1522 1521 1520 1518 1517 1516 1515 1514 1512 1512 1510 1509 1508 1508 1507 1506 1506
1488 1491 1491 1491 1489 1490 1496 1506 1503 1503 1504 1506 1507 1508 1509 1511 1513 1515 1517 1519 1521 1522 1523 1524 1524 1524 1523 1524 1524 1524 1523 1522 1522 1521 1519 1518 1516 1515 1514 1513 1512 1511 1510 1509 1508 1507 1506 1505 1505
1491 1484 1485 1488 1495 1501 1498 1520 1510 1504 1506 1507 1509 1510 1511 1513 1514 1516 1518 1519 1520 1522 1522 1523 1523 1524 1523 1523 1522 1522 1522 1522 1521 1520 1519 1517 1516 1514 1513 1512 1511 1510 1509 1508 1507 1506 1505 1504 1504
1484 1482 1484 1487 1492 1499 1497 1511 1515 1506 1510 1510 1510 1512 1513 1514 1516 1517 1518 1519 1520 1521 1522 1523 1523 1523 1522 1522 1522 1521 1521 1521 1520 1519 1518 1516 1515 1513 1512 1511 1510 1509 1508 1507 1506 1505 1504 1503 1503
1482 1484 1486 1488 1494 1510 1500 1507 1520 1510 1510 1510 1511 1513 1514 1516 1517 1518 1519 1520 1520 1521 1521 1522 1522 1522 1521 1521 1521 1520 1520 1519 1519 1518 1517 1515 1514 1513 1511 1510 1509 1508 1507 1506 1504 1503 1503 1502 1501
1483 1492 1506 1512 1514 1513 1495 1506 1517 1508 1508 1510 1512 1514 1516 1517 1518 1518 1519 1519 1520 1520 1520 1521 1521 1521 1520 1520 1520 1520 1519 1518 1517 1516 1515 1514 1513 1512 1510 1509 1508 1506 1505 1504 1503 1502 1501 1501 1500
1486 1494 1511 1519 1516 1508 1497 1511 1514 1507 1509 1511 1513 1516 1517 1518 1519 1519 1520 1520 1520 1520 1520 1520 1520 1520 1519 1519 1519 1518 1518 1517 1516 1515 1514 1513 1512 1511 1509 1507 1506 1505 1503 1502 1501 1500 1500 1499 1499
1487 1493 1488 1496 1499 1505 1506 1512 1511 1508 1510 1512 1515 1517 1518 1519 1520 1520 1521 1521 1520 1520 1520 1520 1519 1519 1518 1518 1517 1517 1516 1515 1514 1513 1512 1511 1510 1509 1507 1506 1504 1503 1502 1501 1500 1499 1498 1498 1497
1480 1481 1485 1494 1505 1511 1510 1511 1514 1512 1512 1513 1515 1518 1519 1520 1520 1521 1521 1521 1521 1520 1520 1519 1519 1518 1517 1517 1516 1515 1514 1513 1512 1511 1510 1509 1508 1507 1505 1504 1503 1502 1501 1499 1498 1497 1496 1496 1495
1482 1483 1485 1488 1491 1504 1514 1516 1499 1506 1509 1512 1515 1518 1520 1521 1521 1521 1521 1521 1521 1520 1519 1518 1518 1517 1516 1515 1514 1513 1512 1511 1510 1509 1508 1507 1505 1505 1503 1502 1501 1500 1499 1498 1497 1496 1495 1494 1493
1477 1480 1484 1496 1495 1491 1503 1518 1500 1505 1509 1512 1515 1518 1520 1521 1521 1522 1521 1521 1520 1519 1518 1518 1517 1516 1515 1514 1513 1512 1511 1509 1508 1507 1506 1504 1503 1502 1501 1500 1499 1498 1497 1496 1494 1493 1493 1492 1492